• Join FlightAware (Why Join?)
  • Login
  • US Flag 
12:38AM EDT


 

Airport Tracker/Info


-or-


 

Live Flight TrackerFlight Track Log ✈ EJA729 ✈ 02-Jul-2013 ✈ KCMH - KMDW

Flight Track Log - Related Links

Times and Time Zones

All times are in EDT time to prevent confusion due to time zone crossing. See the EJA729 flight status page for this flight to view local times or setup timezone preferences in your user account.

Time Position Orientation Groundspeed Altitude Reporting Facility
EDT Latitude Longitude Course Direction KTS MPH feet Rate Location/Type
02:16PM 40.0017 -82.8717 91° East 154 177 1,500  Level Indianapolis Center
02:17PM 40.0006 -82.8089 91° East 211 243 3,900 2,820 Climbing Indianapolis Center
02:18PM 40.0414 -82.7306 56° Northeast 284 327 6,900 2,880 Climbing Indianapolis Center
02:19PM 40.0944 -82.7936 318° Northwest 287 330 9,900 2,700 Climbing Indianapolis Center
02:20PM 40.1311 -82.9006 294° West 336 387 12,500 2,700 Climbing Indianapolis Center
02:21PM 40.1783 -83.0242 297° West 374 430 15,500 2,820 Climbing Indianapolis Center
02:22PM 40.2281 -83.1519 297° West 390 449 18,400 2,640 Climbing Indianapolis Center
02:23PM 40.2789 -83.2847 297° West 404 465 21,000 2,520 Climbing Indianapolis Center
02:24PM 40.3306 -83.4194 297° West 413 475 23,600 2,340 Climbing Indianapolis Center
02:25PM 40.3911 -83.5808 296° West 420 483 25,900 1,140 Climbing Indianapolis Center
02:26PM 40.4472 -83.7308 296° West 452 520 26,000  Climbing Indianapolis Center
02:27PM 40.5058 -83.8881 296° West 474 545 26,000  Level Indianapolis Center
02:28PM 40.5647 -84.0456 296° West 476 548 26,000  Level Indianapolis Center
02:29PM 40.6236 -84.2047 296° West 479 551 26,000  Level Indianapolis Center
02:30PM 40.6833 -84.3642 296° West 482 555 26,000  Level Indianapolis Center
02:31PM 40.7411 -84.5244 295° West 482 555 26,000  Level Indianapolis Center
02:32PM 40.7994 -84.6856 296° West 482 555 26,000  Level Indianapolis Center
02:33PM 40.8700 -84.8392 301° West 492 566 26,000  Level Indianapolis Center
02:34PM 40.9514 -84.9844 307° West 494 568 26,000  Level Indianapolis Center
02:35PM 41.0483 -85.1594 306° West 494 568 26,000  Level Indianapolis Center
02:36PM 41.1250 -85.2947 307° West 497 572 26,000  Level Chicago Center
02:37PM 41.2061 -85.4436 306° West 497 572 26,000 -1,020 Level Chicago Center
02:38PM 41.3033 -85.6208 306° West 490 564 24,000 -1,500 Descending Chicago Center
02:39PM 41.4058 -85.7272 322° Northwest 471 542 23,000 -1,140 Descending Chicago Center
02:40PM 41.5039 -85.8422 319° Northwest 475 547 21,700 -1,980 Descending Chicago Center
02:41PM 41.5214 -85.9969 279° West 426 490 19,000 -2,940 Descending Chicago Center
02:42PM 41.5236 -86.1422 271° West 399 459 15,700 -3,060 Descending Chicago Center
02:43PM 41.5233 -86.2789 270° West 375 432 12,700 -2,400 Descending Chicago Center
02:45PM 41.5214 -86.4039 269° West 345 397 10,800 -1,320 Descending Chicago Center
02:46PM 41.5211 -86.5622 270° West 358 412 10,000 -420 Descending Chicago Center
02:47PM 41.5206 -86.6958 270° West 363 418 10,000  Level Chicago Center
02:48PM 41.5197 -86.8283 270° West 357 411 10,000 -420 Level Chicago Center
02:49PM 41.5189 -86.9358 269° West 304 350 9,200 -1,260 Descending Chicago Center
02:50PM 41.5219 -87.0442 272° West 293 337 7,500 -1,560 Descending Chicago Center
02:51PM 41.5381 -87.1719 280° West 295 339 6,000 -780 Descending Chicago Center
02:52PM 41.5486 -87.2772 278° West 292 336 6,000 -540 Level Chicago Center
02:53PM 41.5578 -87.3847 277° West 293 337 4,900 -960 Descending Chicago Center
02:54PM 41.5647 -87.4861 275° West 286 329 4,000 -480 Descending Chicago Center
02:55PM 41.5694 -87.5858 274° West 277 319 4,000 -540 Level Chicago Center
02:56PM 41.5756 -87.7089 274° West 278 320 3,000 -540 Descending Chicago Center
02:57PM 41.5803 -87.8081 274° West 276 318 3,000  Level Chicago Center
02:58PM 41.5950 -87.8883 284° West 253 291 3,000 -120 Level Chicago Center
02:59PM 41.6372 -87.9439 315° West 242 278 2,800 -300 Descending Chicago Center
03:00PM 41.6733 -87.8958 45° Northeast 208 239 2,500 -300 Descending Chicago Center
03:01PM 41.7181 -87.8361 45° Northeast 197 227 2,300 -480 Descending Chicago Center
03:02PM 41.7458 -87.8022 42° Northeast 162 186 1,600 -660 Descending Chicago Center
03:03PM 41.7744 -87.7667 43° Northeast 145 167 1,000 -600 Descending Chicago Center
03:05PM 41.7833 -87.7500 340° North  Level FlightAware Approximate